Estación municipal de St. Hilari Sacalm (La Selva, Guilleries)

Consulta los datos en tiempo real de la estación municipal de St. Hilari Sacalm





Hora UTC 15:55
Temperatura 15.8 ºC
Humedad 59.8 %
Presión 1020.5 hPa
Pluja 0.1 mm
Velocidad viento 6.0 km/h
Dirección viento ESE
Radiación solar 376.1 W/m²

Webcam

Datos diarios 2026-05-02



Hora UTC (invierno +1h; verano +2h)
Temperatura (ºC) Humedad (%) Presión (hPa) Velocidad viento (km/h) Precipitación (mm) Radiación solar (W/m²)
Hora UTC Aire Humedad Presión Vel. Dir. Vel. Max Dir. Intent. máx 5 min. Rad. Sol.
00:05 10.2 77.2 1024.0 0.0 NNE 0.0 SW 0.0 0.1
00:10 10.4 78.4 1024.0 0.0 NNE 0.0 SW 0.0 0.1
00:15 10.5 78.3 1023.9 0.0 NNE 0.0 WSW 0.0 0.1
00:20 10.6 79.7 1023.8 0.0 NNE 0.0 WSW 0.0 0.1
00:25 10.7 80.3 1023.8 0.0 NNE 0.0 SSW 0.0 0.1
00:30 10.8 80.9 1023.8 0.0 NNE 0.0 WSW 0.0 0.1
00:35 11.1 82.2 1023.7 0.0 NNE 0.0 SSW 0.0 0.1
00:40 11.3 84.1 1023.7 0.0 NNE 0.0 SSW 0.0 0.1
00:45 11.5 86.5 1023.7 0.0 NNE 0.0 S 0.0 0.1
00:50 11.6 88.1 1023.6 0.0 NNE 0.0 S 0.0 0.1
00:55 11.6 89.1 1023.6 0.0 NNE 0.0 S 0.0 0.1
01:00 11.5 89.1 1023.6 0.0 NNE 0.0 W 0.0 0.1
01:05 11.3 89.0 1023.5 0.0 NNE 0.0 WSW 0.0 0.1
01:10 11.2 89.5 1023.5 0.0 NNE 0.0 WSW 0.0 0.1
01:15 11.2 90.1 1023.5 0.0 NNE 0.0 WNW 0.0 0.1
01:20 11.3 90.6 1023.4 0.0 NNE 0.0 W 0.0 0.1
01:25 11.3 91.2 1023.4 0.0 NNE 0.0 WSW 0.0 0.1
01:30 11.3 91.5 1023.3 0.0 NNE 0.0 WNW 0.0 0.1
01:35 11.2 91.7 1023.3 0.0 NNE 0.0 WSW 0.0 0.1
01:40 11.2 91.9 1023.3 0.0 NNE 0.0 SW 0.0 0.1
01:45 11.3 92.1 1023.3 0.0 NNE 0.0 SSW 0.0 0.1
01:50 11.4 92.3 1023.2 0.0 NNE 0.0 S 0.0 0.1
01:55 11.4 92.4 1023.2 0.0 NNE 0.0 SSW 0.0 0.1
02:00 11.5 92.5 1023.2 0.0 NNE 0.0 SSW 0.0 0.1
02:05 11.4 92.4 1023.1 0.0 NNE 0.0 WSW 0.0 0.1
02:10 11.4 92.3 1023.0 0.0 NNE 0.0 W 0.0 0.1
02:15 11.4 92.3 1023.0 0.0 NNE 0.0 WSW 0.0 0.1
02:20 11.4 92.5 1023.0 0.0 NNE 0.0 WSW 0.0 0.1
02:25 11.5 92.7 1022.9 0.0 NNE 0.0 SW 0.0 0.1
02:30 11.7 92.9 1022.9 0.0 NNE 0.0 E 0.0 0.1
02:35 11.7 92.8 1023.0 0.0 NNE 0.0 ENE 0.0 0.1
02:40 11.7 93.0 1023.0 0.0 NNE 0.0 ENE 0.0 0.1
02:45 11.9 93.3 1023.0 0.0 NNE 0.0 ENE 0.0 0.1
02:50 12.0 93.4 1023.0 0.0 NNE 0.0 E 0.0 0.1
02:55 12.1 93.6 1023.0 0.0 NNE 0.0 SE 0.0 0.2
03:00 12.1 93.7 1023.0 0.0 NNE 0.0 ESE 0.0 0.1
03:05 12.1 93.8 1022.9 0.0 NNE 0.0 ESE 0.0 0.1
03:10 12.1 93.6 1022.9 0.0 NNE 0.0 ENE 0.0 0.1
03:15 11.7 93.2 1022.9 1.0 E 8.8 NE 0.1 0.1
03:20 11.5 93.5 1022.9 0.0 NNE 0.0 ENE 0.0 0.2
03:25 11.4 93.7 1022.8 0.0 NNE 0.0 NNE 0.0 0.1
03:30 11.2 93.7 1022.8 0.0 NNE 0.0 NNE 0.0 0.1
03:35 11.1 93.9 1022.8 0.0 NNE 0.0 NNE 0.0 0.1
03:40 11.2 94.5 1022.8 0.0 NNE 0.0 NNE 0.0 0.1
03:45 11.4 94.9 1022.8 0.0 NNE 0.0 SSE 0.0 0.2
03:50 11.4 95.0 1022.7 0.1 S 3.4 S 0.0 0.1
03:55 11.4 95.0 1022.7 0.0 NNE 0.0 SSE 0.0 0.1
04:00 11.4 95.2 1022.7 0.0 NNE 0.0 S 0.0 0.1
04:05 11.4 95.2 1022.7 0.0 NNE 0.0 SSE 0.0 0.1
04:10 11.4 95.4 1022.7 0.0 NNE 0.0 SSE 0.0 0.1
04:15 11.4 95.4 1022.8 0.0 NNE 0.0 ESE 0.0 0.1
04:20 11.2 95.3 1022.7 0.0 NNE 0.0 E 0.0 0.1
04:25 11.1 95.2 1022.7 0.0 NNE 0.0 SE 0.0 0.2
04:30 10.9 95.0 1022.7 0.0 NNE 0.0 ESE 0.0 0.2
04:35 10.7 94.9 1022.7 0.0 NNE 0.0 SSW 0.0 0.5
04:40 10.6 95.0 1022.7 0.0 NNE 0.0 S 0.0 0.7
04:45 10.6 95.0 1022.7 0.0 NNE 0.0 SSE 0.0 1.7
04:50 10.7 95.3 1022.7 0.0 NNE 0.0 S 0.0 1.6
04:55 10.5 94.9 1022.7 0.0 NNE 0.0 NW 0.0 2.0
05:00 10.3 94.4 1022.8 0.0 NNE 0.0 SW 0.0 2.5
05:05 10.2 94.4 1022.8 0.0 NNE 0.0 SW 0.0 4.9
05:10 10.3 94.4 1022.8 0.0 NNE 0.0 SW 0.0 6.9
05:15 10.3 94.0 1022.8 0.0 NNE 0.0 SW 0.0 5.8
05:20 10.3 93.3 1022.8 0.0 NNE 0.0 SW 0.0 8.3
05:25 10.3 92.3 1022.8 0.0 NNE 0.0 S 0.0 12.3
05:30 10.5 90.7 1022.8 0.0 NNE 0.0 ESE 0.0 19.7
05:35 10.7 88.7 1022.8 0.0 NNE 0.0 SE 0.0 23.2
05:40 10.9 86.6 1022.8 0.0 NNE 0.0 ESE 0.0 22.5
05:45 11.0 84.5 1022.8 0.0 NNE 0.0 S 0.0 32.1
05:50 11.1 83.3 1022.8 0.0 NNE 0.0 S 0.0 60.8
05:55 11.3 82.9 1022.8 0.0 NNE 0.0 ESE 0.0 95.6
06:00 11.4 82.8 1022.9 0.0 NNE 0.0 ENE 0.0 119.4
06:05 11.7 80.1 1022.9 0.0 NNE 0.0 S 0.0 91.4
06:10 12.0 78.0 1023.0 0.0 NNE 0.0 SSE 0.0 66.5
06:15 12.1 77.8 1023.0 0.0 NNE 0.0 SE 0.0 53.3
06:20 12.1 77.7 1023.0 0.0 NNE 0.0 SSE 0.0 50.3
06:25 12.1 78.1 1023.0 0.0 NNE 0.0 SSW 0.0 54.2
06:30 12.0 77.8 1023.1 0.0 NNE 0.0 S 0.0 52.3
06:35 12.0 77.3 1023.1 0.0 NNE 0.0 S 0.0 52.5
06:40 12.1 77.3 1023.1 0.1 S 6.1 S 0.0 60.0
06:45 12.2 77.0 1023.1 0.0 NNE 0.0 W 0.0 78.9
06:50 12.3 77.3 1023.1 0.0 NNE 0.0 WSW 0.0 107.6
06:55 12.4 74.9 1023.1 0.0 NNE 0.0 S 0.0 141.4
07:00 12.5 70.2 1023.1 0.0 NNE 0.0 S 0.0 170.2
07:05 12.6 67.7 1023.1 1.4 SE 8.8 SE 0.0 167.8
07:10 12.6 66.6 1023.1 2.2 SE 11.5 ESE 0.0 163.0
07:15 12.6 64.5 1023.1 1.4 SE 11.5 SE 0.0 123.4
07:20 12.8 65.7 1023.1 0.8 ESE 8.8 SE 0.0 150.1
07:25 13.0 65.2 1023.2 1.7 SE 8.8 ESE 0.0 132.5
07:30 12.9 64.4 1023.2 2.7 SE 11.5 SE 0.0 136.1
07:35 13.0 65.0 1023.1 1.4 SE 11.5 SE 0.0 182.9
07:40 13.1 64.9 1023.1 1.5 E 8.8 E 0.0 204.2
07:45 13.2 63.5 1023.1 2.3 SE 11.5 ESE 0.0 199.3
07:50 13.2 60.7 1023.1 3.5 SE 16.9 SE 0.0 219.1
07:55 13.4 59.7 1023.2 5.6 SE 14.2 SSE 0.0 189.9
08:00 13.4 60.7 1023.2 4.8 SE 14.2 SE 0.0 169.1
08:05 13.4 60.6 1023.2 5.6 SE 14.2 SSE 0.0 201.5
08:10 13.5 60.8 1023.2 5.2 SE 11.5 ESE 0.0 191.3
08:15 13.5 61.3 1023.2 6.6 SSE 14.2 ESE 0.0 217.2
08:20 13.6 61.6 1023.2 1.2 SE 14.2 SE 0.0 142.3
08:25 13.4 61.9 1023.2 1.2 E 8.8 ESE 0.0 131.4
08:30 13.5 61.9 1023.2 5.9 ESE 11.5 ESE 0.0 171.9
08:35 13.5 61.2 1023.3 0.0 NNE 0.0 E 0.0 169.1
08:40 13.7 61.1 1023.3 0.0 NNE 0.0 S 0.0 133.1
08:45 13.6 60.5 1023.2 2.9 SSE 11.5 SSE 0.0 101.8
08:50 13.4 61.2 1023.3 1.9 SE 11.5 SSE 0.0 83.6
08:55 13.3 62.0 1023.3 1.6 SSE 11.5 S 0.0 57.0
09:00 13.3 62.8 1023.3 0.7 SSW 8.8 SSW 0.0 51.3
09:05 13.2 64.1 1023.3 1.6 SSE 8.8 SSW 0.0 69.3
09:10 13.1 64.4 1023.2 0.2 SSE 6.1 SE 0.0 104.0
09:15 13.2 64.2 1023.2 0.4 SE 6.1 SE 0.0 116.6
09:20 13.3 63.8 1023.2 0.7 SE 6.1 ESE 0.0 158.6
09:25 13.5 62.0 1023.2 3.6 SSE 11.5 S 0.0 297.8
09:30 13.8 61.2 1023.3 4.8 SSE 11.5 SSE 0.0 274.0
09:35 13.9 60.8 1023.3 5.0 SSE 14.2 SSE 0.0 235.3
09:40 13.9 60.9 1023.3 6.5 SSE 16.9 S 0.0 147.1
09:45 13.8 61.7 1023.3 7.0 SSE 14.2 SSE 0.0 139.6
09:50 13.7 62.3 1023.3 6.3 SSE 14.2 SSE 0.0 122.7
09:55 13.6 63.1 1023.3 5.7 SSE 14.2 SE 0.0 119.4
10:00 13.6 63.8 1023.2 2.2 SE 8.8 SE 0.0 126.8
10:05 13.6 63.8 1023.2 3.9 SSE 14.2 SSE 0.0 136.5
10:10 13.7 64.0 1023.1 1.7 SE 8.8 S 0.0 171.1
10:15 13.8 64.8 1023.0 0.0 NNE 0.0 ESE 0.0 206.2
10:20 14.1 63.9 1023.0 0.0 NNE 0.0 ESE 0.0 244.8
10:25 14.2 61.5 1023.0 0.2 ESE 6.1 SE 0.0 231.6
10:30 14.4 61.6 1023.0 3.0 SSE 11.5 SSE 0.0 283.6
10:35 14.6 59.4 1023.0 1.7 ESE 8.8 ESE 0.0 296.6
10:40 14.8 57.2 1023.0 2.9 SSE 14.2 S 0.0 228.6
10:45 14.9 54.4 1023.0 6.6 S 16.9 SSW 0.0 185.0
10:50 14.9 54.8 1023.0 5.2 S 11.5 SSW 0.0 260.0
10:55 15.1 55.9 1023.0 2.2 S 8.8 S 0.0 219.1
11:00 15.0 54.8 1023.0 8.8 S 16.9 S 0.0 195.8
11:05 15.2 57.2 1022.9 4.9 SSW 11.5 SSW 0.0 322.1
11:10 15.3 55.7 1022.9 6.8 SSE 14.2 S 0.0 332.7
11:15 15.4 56.2 1022.9 4.8 SSE 14.2 SSE 0.0 323.0
11:20 15.5 56.9 1022.7 5.5 SSE 19.6 SE 0.0 391.0
11:25 15.6 57.4 1022.6 5.3 SSE 14.2 SE 0.0 412.1
11:30 15.6 58.6 1022.5 9.7 SE 16.9 SSE 0.0 422.7
11:35 15.5 58.0 1022.4 9.0 SSE 16.9 SE 0.0 477.6
11:40 15.8 59.5 1022.4 9.5 SSE 16.9 SSE 0.0 544.4
11:45 15.9 60.3 1022.4 10.5 ESE 16.9 SE 0.0 541.5
11:50 16.3 60.4 1022.3 5.7 SE 14.2 ESE 0.0 523.4
11:55 16.4 59.6 1022.2 7.1 SSE 19.6 SSW 0.0 503.1
12:00 16.4 59.4 1022.2 10.0 SSE 19.6 S 0.0 574.9
12:05 16.5 59.1 1022.3 7.2 SE 19.6 ESE 0.0 551.4
12:10 16.6 58.3 1022.3 10.2 ESE 19.6 ESE 0.0 649.6
12:15 16.6 57.6 1022.2 10.3 SE 25.0 ESE 0.0 641.0
12:20 16.6 57.8 1022.2 7.0 ESE 19.6 ESE 0.0 595.6
12:25 16.6 57.1 1022.1 7.9 SE 19.6 ESE 0.0 623.0
12:30 16.7 57.3 1022.1 12.4 ESE 22.3 E 0.0 582.4
12:35 16.8 57.0 1022.1 10.3 SE 19.6 ESE 0.0 527.4
12:40 16.5 56.9 1022.1 11.2 SE 22.3 SSE 0.0 699.4
12:45 16.4 56.0 1022.1 9.6 SE 16.9 SE 0.0 568.9
12:50 16.7 57.4 1022.0 8.9 SE 16.9 SE 0.0 994.0
12:55 17.3 52.6 1021.9 10.6 SE 19.6 SSE 0.0 995.0
13:00 17.4 50.9 1022.0 8.9 ESE 19.6 SE 0.0 967.0
13:05 18.1 50.2 1022.0 7.3 SE 19.6 ESE 0.0 739.6
13:10 18.1 45.8 1022.0 8.7 SSE 27.7 SSW 0.0 690.9
13:15 18.1 46.3 1022.0 11.9 S 25.0 S 0.0 878.0
13:20 18.1 45.8 1022.0 9.6 SSE 16.9 S 0.0 833.0
13:25 18.2 46.6 1021.9 12.1 S 22.3 SSE 0.0 650.8
13:30 17.8 46.9 1021.9 12.1 S 25.0 SSW 0.0 452.8
13:35 17.4 50.6 1021.9 11.3 SE 25.0 ESE 0.0 455.2
13:40 17.1 52.8 1021.8 13.1 ESE 22.3 ESE 0.0 373.3
13:45 16.7 56.2 1021.7 12.0 SE 19.6 S 0.0 246.8
13:50 16.5 56.6 1021.7 8.1 SE 19.6 SE 0.0 285.9
13:55 16.5 55.7 1021.6 10.0 SE 16.9 SSE 0.0 263.4
14:00 16.2 58.1 1021.5 6.9 SSE 14.2 SSE 0.0 285.3
14:05 16.1 58.7 1021.5 3.7 SE 8.8 SE 0.0 314.1
14:10 16.6 58.5 1021.4 4.6 ESE 16.9 ESE 0.0 327.1
14:15 16.7 56.6 1021.4 7.7 ESE 19.6 ESE 0.0 265.2
14:20 16.7 55.6 1021.4 6.3 SSE 19.6 SSW 0.0 223.1
14:25 16.5 55.3 1021.3 6.7 SE 16.9 SE 0.0 216.3
14:30 16.2 60.4 1021.2 9.5 SE 16.9 SE 0.0 275.4
14:35 15.8 64.8 1021.2 11.3 SE 25.0 SE 0.0 336.9
14:40 15.7 67.5 1021.1 8.4 SSE 19.6 S 0.0 276.7
14:45 15.8 64.6 1021.1 6.3 SSE 16.9 SW 0.0 263.2
14:50 15.8 63.1 1021.1 6.6 SE 25.0 ESE 0.0 287.7
14:55 15.5 63.1 1021.0 7.2 SE 19.6 ESE 0.0 321.0
15:00 15.7 62.4 1020.9 6.1 SE 16.9 E 0.0 296.1
15:05 15.7 61.3 1020.9 2.5 E 14.2 SE 0.0 292.1
15:10 15.8 58.6 1020.9 6.5 SE 16.9 ESE 0.0 244.9
15:15 15.8 56.2 1020.9 11.0 SE 22.3 SE 0.0 191.8
15:20 15.7 53.9 1020.9 5.1 SSE 16.9 ESE 0.0 233.3
15:25 15.6 54.6 1020.9 9.4 SE 19.6 SE 0.0 234.9
15:30 15.5 57.7 1020.8 4.8 SSE 19.6 SSE 0.0 240.2
15:35 15.6 57.9 1020.7 7.9 SE 19.6 ESE 0.0 254.0
15:40 15.5 55.5 1020.6 13.7 ESE 22.3 ESE 0.0 379.6
15:45 15.8 55.3 1020.4 5.6 SE 16.9 SSW 0.0 414.5
15:50 15.8 57.0 1020.5 7.3 SE 19.6 ESE 0.0 354.7
15:55 15.8 59.8 1020.5 6.0 ESE 16.9 ESE 0.0 376.1
Máxima 18.2 95.4 1024.0 13.7 ESE 27.7 SSW 0.1 995.0
Mínima 10.2 45.8 1020.4
Total 0.1